Preview of NWS' New Version of Forecast
This preview is not operational and should not be used for support decisions.

Regional Weather Roundup (RWR)

Issued by National Weather Service (NWS)

                            
000
ASUS46 KSEW 170710
RWRWA 

WASHINGTON REGIONAL WEATHER ROUNDUP
NATIONAL WEATHER SERVICE SEATTLE WA
1200 AM PDT TUE SEP 17 2019

NOTE:"FAIR" INDICATES FEW OR NO CLOUDS BELOW 12,000 FEET WITH NO 
SIGNIFICANT WEATHER AND/OR OBSTRUCTIONS TO VISIBILITY.

WAZ507-509-555>559-170800-
SEATTLE, TACOMA, EVERETT, AND VICINITY
  
CITY           SKY/WX    TMP DP  RH WIND       PRES   REMARKS
EVERETT        MOCLDY    56  51  84 SE12      29.84F                  
BOEING FIELD   MOCLDY    58  53  84 SE9       29.84F                  
RENTON         CLOUDY    57  54  89 VRB3      29.85F FOG              
SEATAC AIRPORT MOCLDY    58  51  78 SE8       29.84F                  
JBLM-MCCHORD   CLOUDY    56  56  99 S7        29.85F                  
PUYALLUP       CLOUDY    57  52  82 VRB3      29.86S                  
BREMERTON      CLOUDY    55  53  93 SW3       29.84F                  
JBLM-FT LEWIS  MOCLDY    54  54 100 SE7       29.84F                  
TACOMA NARROWS MOCLDY    55  51  86 S9        29.84F                  
$$
 
WAZ001-503-506-510-514-515-170800-
NORTH INTERIOR
  
CITY           SKY/WX    TMP DP  RH WIND       PRES   REMARKS
BELLINGHAM     CLOUDY    60  50  69 S14G24    29.79F                  
FRIDAY HARBOR  MOCLDY    54  51  90 SE5       29.80F                  
EASTSOUND      PTCLDY    59  54  82 S10       29.77F                  
PORT ANGELES   CLOUDY    51  51 100 CALM      29.79F                  
EDIZ HOOK      FAIR      51  51  99 CALM      29.79S                  
PORT TOWNSEND  MOCLDY    54  52  94 CALM      29.79F                  
NAS WHIDBEY    MOCLDY    61  52  72 SE15      29.83F                  
ARLINGTON      MOCLDY    57  51  80 SE12      29.84F                  
BURLINGTON     CLOUDY    57  52  82 SE6G14    29.81F                  
$$
 
WAZ020-022-039-040-504-511-512-170800-
SOUTHWEST INTERIOR
  
CITY           SKY/WX    TMP DP  RH WIND       PRES   REMARKS
SHELTON        CLOUDY    54  51  90 CALM      29.81F                  
OLYMPIA        MOCLDY    55  53  93 S6        29.85F                  
CHEHALIS       FAIR      57  55  94 S5        29.86S                  
KELSO          LGT RAIN  57  54  89 SE7       29.88F                  
VANCOUVER      MOCLDY    58  52  80 SE5       29.90F                  
SCAPPOOSE, OR  CLOUDY    53  52  96 CALM      29.89F                  
PORTLAND, OR   MOCLDY    56  52  86 E6        29.91S                  
$$
 
WAZ021-516-517-170800-
WASHINGTON COAST
  
CITY           SKY/WX    TMP DP  RH WIND       PRES   REMARKS
FORKS          CLOUDY    56  54  93 SE8       29.75F                  
HOQUIAM        LGT RAIN  59  57  93 SE7       29.82F                  
ASTORIA, OR    CLOUDY    57  54  89 SE8       29.82F                  
$$
 
WAZ019-023-024-040-567>569-170800-
CASCADE MOUNTAINS AND COLUMBIA GORGE
  
CITY           SKY/WX    TMP DP  RH WIND       PRES   REMARKS
STAMPEDE PASS  MOCLDY    43  40  89 CALM      29.88F                  
TROUTDALE, OR  PTCLDY    53  50  89 CALM      29.91F                  
HOOD RIVER, OR PTSUNNY   52  50  93 CALM      29.91S                  
THE DALLES, OR CLEAR     55  47  74 SW6       29.89S                  
$$

WAZ026-027-041>044-520-521-170800-
EAST SLOPES
  
CITY           SKY/WX    TMP DP  RH WIND       PRES   REMARKS
OMAK           CLOUDY    58  48  69 S9        29.82R                  
WENATCHEE      CLEAR     55  42  61 N7        29.81S                  
ELLENSBURG     CLEAR     49  42  77 NW7       29.85S                  
YAKIMA         PTCLDY    46  41  82 W3        29.85S                  
SUNNYSIDE ARPT SUNNY     47  45  94 CALM      29.86R                  
YAKIMA TC      FAIR      47  42  84 E5        29.83S                  
$$

WAZ028-034-035-170800-
COLUMBIA BASIN
  
CITY           SKY/WX    TMP DP  RH WIND       PRES   REMARKS
EPHRATA        MOCLDY    52  50  93 N7        29.82F                  
MOSES LAKE     CLOUDY    54  50  86 SE6       29.83S                  
PASCO          CLEAR     59  47  64 SW15      29.84S                  
RICHLAND ARPT  SUNNY     56  47  70 SW6       29.85                   
HERMISTON, OR  CLEAR     57  46  66 SW14      29.87R                  
$$

WAZ036>038-170800-
NORTHEAST WASHINGTON
  
CITY           SKY/WX    TMP DP  RH WIND       PRES   REMARKS
SPOKANE GEIGER PTCLDY    51  47  86 S5        29.85F                  
SPOKANE FELTS  PTCLDY    53  48  83 S5        29.85F                  
FAIRCHILD AFB  CLEAR     47  47 100 CALM      29.85F                  
COEURDALENE,ID MOCLDY    51  47  86 CALM      29.86F                  
DEER PARK      PTCLDY    50  48  93 S3        29.86S                  
$$

WAZ029>033-170800-
SOUTHEAST WASHINGTON
  
CITY           SKY/WX    TMP DP  RH WIND       PRES   REMARKS
PULLMAN        CLOUDY    48  46  93 E5        29.90R                  
LEWISTON, ID   CLOUDY    55  48  77 CALM      29.87S                  
WALLA WALLA    PTCLDY    55  46  71 S12       29.88R                  
PENDLETON, OR  CLOUDY    55  44  66 W18       29.88R                  
$$